This is the latest recevied weather packets stored in our database for station/object F5MAP-5. If no packets are shown the sender has not sent any weather packets the latest 10 day(s).
| Time | Temp. | Humidity | Pressure | Rain* | Wind** | Luminosity | Snow |
|---|---|---|---|---|---|---|---|
| 1787566332 | 22.78° C | 54% | 1017.6 hPa | 0 mm | - | 492 W/m² | - |
| 1787565732 | 22.22° C | 54% | 1017.8 hPa | 0 mm | - | 608 W/m² | - |
| 1787565132 | 22.22° C | 55% | 1017.8 hPa | 0 mm | - | 401 W/m² | - |
| 1787564532 | 22.22° C | 56% | 1017.9 hPa | 0 mm | - | 589 W/m² | - |
| 1787563932 | 21.67° C | 57% | 1018 hPa | 0 mm | - | 580 W/m² | - |
| 1787563333 | 21.11° C | 58% | 1018.1 hPa | 0 mm | - | 482 W/m² | - |
| 1787562732 | 20.56° C | 58% | 1018.2 hPa | 0 mm | - | 399 W/m² | - |
| 1787562132 | 20.56° C | 59% | 1018.4 hPa | 0 mm | - | 443 W/m² | - |
| 1787561532 | 20° C | 60% | 1018.4 hPa | 0 mm | - | 415 W/m² | - |
| 1787560932 | 19.44° C | 61% | 1018.6 hPa | 0 mm | - | 292 W/m² | - |
| 1787560332 | 18.89° C | 63% | 1018.8 hPa | 0 mm | - | 480 W/m² | - |
| 1787559732 | 18.33° C | 64% | 1018.9 hPa | 0 mm | - | 503 W/m² | - |
| 1787559132 | 18.33° C | 64% | 1018.9 hPa | 0 mm | - | 497 W/m² | - |
| 1787558532 | 17.78° C | 66% | 1018.9 hPa | 0 mm | - | 487 W/m² | - |
| 1787557932 | 17.22° C | 67% | 1019 hPa | 0 mm | - | 408 W/m² | - |
| 1787557335 | 17.22° C | 68% | 1019.1 hPa | 0 mm | - | 74 W/m² | - |
| 1787556733 | 16.67° C | 70% | 1019.3 hPa | 0 mm | - | 70 W/m² | - |
| 1787556132 | 16.11° C | 71% | 1019.4 hPa | 0 mm | - | 67 W/m² | - |
| 1787555532 | 15.56° C | 72% | 1019.4 hPa | 0 mm | - | 63 W/m² | - |
| 1787554932 | 15.56° C | 73% | 1019.5 hPa | 0 mm | - | 62 W/m² | - |
| 1787554332 | 15° C | 74% | 1019.5 hPa | 0 mm | - | 60 W/m² | - |
| 1787553732 | 14.44° C | 76% | 1019.6 hPa | 0 mm | - | 58 W/m² | - |
| 1787553132 | 14.44° C | 78% | 1019.5 hPa | 0 mm | - | 56 W/m² | - |
| 1787552532 | 13.89° C | 80% | 1019.7 hPa | 0 mm | - | 53 W/m² | - |
| 1787551932 | 13.33° C | 81% | 1019.7 hPa | 0 mm | - | 40 W/m² | - |
* Rain latest hour (hover to see other rain measurements)
** Current wind speed in m/s (hover to see current wind gust speed)